View from above orbital plane
|
View from above satellite
|
Ground track
|
The orbit data is extracted from the following two-line orbital elements,
1 17528U 87018B 21058.47722141 .00000082 00000-0 27136-4 0 9994
2 17528 97.4022 243.4895 0152349 23.4225 337.3817 14.51032888775209
Epoch (UTC): | 27 February 2021 11:27:11 |
Eccentricity: | 0.0152349 |
inclination: | 97.4022° |
perigee height: | 614 km |
apogee height: | 830 km |
right ascension of ascending node: | 243.4895° |
argument of perigee: | 23.4225° |
revolutions per day: | 14.51032888 |
mean anomaly at epoch: | 337.3817° |
orbit number at epoch: | 77520 |
The dashed part of the orbit path shows where the satellite is in the earth's shadow,
|
|